{"data":{"norad_id":67096,"epoch":"2026-09-20T08:17:08.527776Z","epoch_age_seconds":92368,"freshness":"FRESH","line1":"1 67096U 25298X   26263.34523759  .00003006  00000+0  25956-3 0  9999","line2":"2 67096  69.9994 243.7020 0004045 267.6952  92.3744 14.98342258 42375","mean_motion":14.98342258,"eccentricity":0.0004045,"inclination_deg":69.9994,"raan_deg":243.702,"arg_perigee_deg":267.6952,"mean_anomaly_deg":92.3744,"bstar":0.00025956,"rev_number":4237,"period_min":96.106212870357,"perigee_km":569.20664665784,"apogee_km":574.82932204018,"semimajor_km":6950.154984349,"source":"CELESTRAK","updated_at":"2026-09-21T09:00:36.101961Z"}}